Location: Elstree
(51.6403°N, 0.2969°W)
Time: 14:36:17
(UTC+00:00)

Cosmos 1354 Rocket - Pass Details

Date: 24 June 2021
Orbit: 764 x 783 km, 74.0° (Epoch: 25 July)

Event Time Altitude Azimuth Distance (km) Brightness Sun altitude
Rises 22:45:30 0° 328° (NNW) 3,285 9.0 -13.0°
Reaches altitude 10° 22:48:07 10° 318° (NW) 2,352 7.6 -13.2°
Maximum altitude 22:52:43 30° 259° (W) 1,373 5.4 -13.4°
Enters shadow 22:56:49 12° 202° (SSW) 2,176 5.9 -13.5°
